Time,TemperatureF,DewpointF,PressureIn,WindDirection,WindDirectionDegrees,WindSpeedMPH,WindSpeedGustMPH,Humidity,HourlyPrecipIn,Conditions,Clouds,dailyrainin,SoftwareType,DateUTC
2013-03-29 00:03:00,53.0,42.0,30.29,NE,41,2.0,4.0,67,99.99,,,-99.99,,2013-03-29 04:03:00,
2013-03-29 00:13:00,53.0,42.0,30.29,NE,41,2.0,4.0,67,99.99,,,-99.99,,2013-03-29 04:13:00,
2013-03-29 00:22:00,52.0,43.0,30.29,NNE,21,3.0,4.0,71,99.99,,,-99.99,,2013-03-29 04:22:00,
2013-03-29 00:33:00,51.0,43.0,30.29,North,350,0.0,2.0,74,99.99,,,-99.99,,2013-03-29 04:33:00,
2013-03-29 00:43:00,51.0,43.0,30.29,North,350,0.0,2.0,74,99.99,,,-99.99,,2013-03-29 04:43:00,
2013-03-29 00:53:00,50.0,43.0,30.29,North,0,0.0,0.0,76,99.99,,,-99.99,,2013-03-29 04:53:00,
2013-03-29 01:03:00,50.0,43.0,30.29,North,0,0.0,0.0,77,99.99,,,-99.99,,2013-03-29 05:03:00,
2013-03-29 01:12:00,50.0,43.0,30.29,North,0,0.0,0.0,77,99.99,,,-99.99,,2013-03-29 05:12:00,
2013-03-29 01:23:00,49.0,43.0,30.28,North,0,0.0,0.0,79,99.99,,,-99.99,,2013-03-29 05:23:00,
2013-03-29 01:33:00,48.0,42.0,30.28,NE,42,0.0,1.0,81,99.99,,,-99.99,,2013-03-29 05:33:00,
2013-03-29 01:43:00,48.0,42.0,30.28,NE,42,0.0,1.0,81,99.99,,,-99.99,,2013-03-29 05:43:00,
2013-03-29 01:52:00,48.0,43.0,30.28,North,0,0.0,0.0,84,99.99,,,-99.99,,2013-03-29 05:52:00,
2013-03-29 02:02:00,48.0,44.0,30.28,North,0,0.0,0.0,85,99.99,,,-99.99,,2013-03-29 06:02:00,
2013-03-29 02:12:00,48.0,44.0,30.28,North,0,0.0,0.0,85,99.99,,,-99.99,,2013-03-29 06:12:00,
2013-03-29 02:23:00,48.0,44.0,30.28,North,0,0.0,0.0,87,99.99,,,-99.99,,2013-03-29 06:23:00,
2013-03-29 02:32:00,48.0,44.0,30.28,North,0,0.0,0.0,87,99.99,,,-99.99,,2013-03-29 06:32:00,
2013-03-29 02:42:00,48.0,44.0,30.28,North,0,0.0,0.0,87,99.99,,,-99.99,,2013-03-29 06:42:00,
2013-03-29 02:52:00,47.0,44.0,30.27,North,0,0.0,0.0,90,99.99,,,-99.99,,2013-03-29 06:52:00,
2013-03-29 03:12:00,47.0,45.0,30.27,North,0,0.0,0.0,92,99.99,,,-99.99,,2013-03-29 07:12:00,
2013-03-29 03:22:00,47.0,46.0,30.27,North,0,0.0,0.0,95,99.99,,,-99.99,,2013-03-29 07:22:00,
2013-03-29 03:32:00,46.0,45.0,30.27,North,0,0.0,0.0,97,99.99,,,-99.99,,2013-03-29 07:32:00,
2013-03-29 03:42:00,46.0,45.0,30.27,North,0,0.0,0.0,97,99.99,,,-99.99,,2013-03-29 07:42:00,
2013-03-29 03:52:00,46.0,45.0,30.27,North,0,0.0,0.0,98,99.99,,,-99.99,,2013-03-29 07:52:00,
2013-03-29 04:02:00,46.0,45.0,30.26,North,0,0.0,0.0,98,99.99,,,-99.99,,2013-03-29 08:02:00,
2013-03-29 04:12:00,46.0,45.0,30.26,North,0,0.0,0.0,98,99.99,,,-99.99,,2013-03-29 08:12:00,
2013-03-29 04:22:00,46.0,46.0,30.26,North,0,0.0,0.0,99,99.99,,,-99.99,,2013-03-29 08:22:00,
2013-03-29 04:32:00,45.0,45.0,30.26,North,0,0.0,0.0,100,99.99,,,-99.99,,2013-03-29 08:32:00,
2013-03-29 04:42:00,45.0,45.0,30.26,North,0,0.0,0.0,100,99.99,,,-99.99,,2013-03-29 08:42:00,
2013-03-29 04:53:00,46.0,46.0,30.26,North,0,0.0,0.0,100,99.99,,,-99.99,,2013-03-29 08:53:00,
2013-03-29 05:02:00,46.0,46.0,30.26,North,0,0.0,0.0,100,99.99,,,-99.99,,2013-03-29 09:02:00,
2013-03-29 05:13:00,46.0,46.0,30.26,North,0,0.0,0.0,100,99.99,,,-99.99,,2013-03-29 09:13:00,
2013-03-29 05:22:00,46.0,46.0,30.26,North,0,0.0,0.0,100,99.99,,,-99.99,,2013-03-29 09:22:00,
2013-03-29 05:33:00,46.0,46.0,30.26,North,0,0.0,0.0,100,99.99,,,-99.99,,2013-03-29 09:33:00,
2013-03-29 05:43:00,46.0,46.0,30.26,North,0,0.0,0.0,100,99.99,,,-99.99,,2013-03-29 09:43:00,
2013-03-29 05:52:00,46.0,46.0,30.26,North,0,0.0,0.0,100,99.99,,,-99.99,,2013-03-29 09:52:00,
2013-03-29 06:03:00,46.0,46.0,30.26,NE,38,2.0,4.0,100,99.99,,,-99.99,,2013-03-29 10:03:00,
2013-03-29 06:12:00,46.0,46.0,30.26,NE,38,2.0,4.0,100,99.99,,,-99.99,,2013-03-29 10:12:00,
2013-03-29 06:23:00,46.0,46.0,30.27,NNE,28,2.0,3.0,100,99.99,,,-99.99,,2013-03-29 10:23:00,
2013-03-29 06:33:00,46.0,46.0,30.27,NE,44,3.0,4.0,100,99.99,,,-99.99,,2013-03-29 10:33:00,
2013-03-29 06:42:00,46.0,46.0,30.27,NE,44,3.0,4.0,100,99.99,,,-99.99,,2013-03-29 10:42:00,
2013-03-29 06:53:00,46.0,46.0,30.27,NE,55,2.0,3.0,100,99.99,,,-99.99,,2013-03-29 10:53:00,
2013-03-29 07:03:00,47.0,47.0,30.27,NNE,30,4.0,5.0,100,99.99,,,-99.99,,2013-03-29 11:03:00,
2013-03-29 07:12:00,47.0,47.0,30.27,NNE,30,4.0,5.0,100,99.99,,,-99.99,,2013-03-29 11:12:00,
2013-03-29 07:23:00,49.0,49.0,30.28,NE,49,4.0,6.0,100,99.99,,,-99.99,,2013-03-29 11:23:00,
2013-03-29 07:33:00,49.0,49.0,30.28,NE,46,4.0,7.0,100,99.99,,,-99.99,,2013-03-29 11:33:00,
2013-03-29 07:42:00,49.0,49.0,30.28,NE,46,4.0,7.0,100,99.99,,,-99.99,,2013-03-29 11:42:00,
2013-03-29 07:53:00,50.0,50.0,30.29,ENE,60,4.0,6.0,100,99.99,,,-99.99,,2013-03-29 11:53:00,
2013-03-29 08:03:00,50.0,50.0,30.29,ENE,63,3.0,4.0,100,99.99,,,-99.99,,2013-03-29 12:03:00,
2013-03-29 08:12:00,50.0,50.0,30.29,ENE,63,3.0,4.0,100,99.99,,,-99.99,,2013-03-29 12:12:00,
2013-03-29 08:22:00,50.0,50.0,30.30,NE,46,3.0,5.0,100,99.99,,,-99.99,,2013-03-29 12:22:00,
2013-03-29 08:32:00,51.0,51.0,30.30,NNE,32,3.0,6.0,100,99.99,,,-99.99,,2013-03-29 12:32:00,
2013-03-29 08:42:00,51.0,51.0,30.30,NNE,32,3.0,6.0,100,99.99,,,-99.99,,2013-03-29 12:42:00,
2013-03-29 08:53:00,52.0,52.0,30.31,NE,44,2.0,4.0,100,99.99,,,-99.99,,2013-03-29 12:53:00,
2013-03-29 09:03:00,54.0,54.0,30.31,ENE,73,4.0,7.0,100,99.99,,,-99.99,,2013-03-29 13:03:00,
2013-03-29 09:12:00,54.0,54.0,30.31,ENE,73,4.0,7.0,100,99.99,,,-99.99,,2013-03-29 13:12:00,
2013-03-29 09:22:00,57.0,53.0,30.32,NE,44,6.0,8.0,85,99.99,,,-99.99,,2013-03-29 13:22:00,
2013-03-29 09:33:00,58.0,51.0,30.32,NE,55,6.0,9.0,77,99.99,,,-99.99,,2013-03-29 13:33:00,
2013-03-29 09:42:00,58.0,51.0,30.32,NE,55,6.0,9.0,77,99.99,,,-99.99,,2013-03-29 13:42:00,
2013-03-29 09:53:00,60.0,52.0,30.32,NE,56,6.0,9.0,75,99.99,,,-99.99,,2013-03-29 13:53:00,
2013-03-29 10:03:00,62.0,51.0,30.33,NE,49,7.0,11.0,66,99.99,,,-99.99,,2013-03-29 14:03:00,
2013-03-29 10:12:00,62.0,51.0,30.33,NE,49,7.0,11.0,66,99.99,,,-99.99,,2013-03-29 14:12:00,
2013-03-29 10:22:00,64.0,48.0,30.33,NE,55,7.0,11.0,56,99.99,,,-99.99,,2013-03-29 14:22:00,
2013-03-29 10:33:00,65.0,47.0,30.33,ENE,59,9.0,13.0,52,99.99,,,-99.99,,2013-03-29 14:33:00,
2013-03-29 10:42:00,65.0,47.0,30.33,ENE,59,9.0,13.0,52,99.99,,,-99.99,,2013-03-29 14:42:00,
2013-03-29 10:53:00,66.0,46.0,30.33,NE,49,8.0,15.0,49,99.99,,,-99.99,,2013-03-29 14:53:00,
2013-03-29 11:02:00,66.0,43.0,30.33,ENE,75,9.0,14.0,43,99.99,,,-99.99,,2013-03-29 15:02:00,
2013-03-29 11:12:00,66.0,43.0,30.33,ENE,75,9.0,14.0,43,99.99,,,-99.99,,2013-03-29 15:12:00,
2013-03-29 11:22:00,67.0,42.0,30.34,NE,53,8.0,13.0,40,99.99,,,-99.99,,2013-03-29 15:22:00,
2013-03-29 11:33:00,68.0,41.0,30.33,ENE,62,8.0,13.0,38,99.99,,,-99.99,,2013-03-29 15:33:00,
2013-03-29 11:43:00,68.0,41.0,30.33,ENE,62,8.0,13.0,38,99.99,,,-99.99,,2013-03-29 15:43:00,
2013-03-29 11:53:00,68.0,42.0,30.33,ENE,59,8.0,12.0,39,99.99,,,-99.99,,2013-03-29 15:53:00,
2013-03-29 12:03:00,69.0,39.0,30.32,ENE,69,8.0,12.0,34,99.99,,,-99.99,,2013-03-29 16:03:00,
2013-03-29 12:13:00,69.0,39.0,30.32,ENE,69,8.0,12.0,34,99.99,,,-99.99,,2013-03-29 16:13:00,
2013-03-29 12:23:00,70.0,40.0,30.32,NE,55,8.0,14.0,33,99.99,,,-99.99,,2013-03-29 16:23:00,
2013-03-29 12:33:00,70.0,39.0,30.31,NE,44,7.0,13.0,32,99.99,,,-99.99,,2013-03-29 16:33:00,
2013-03-29 12:42:00,70.0,39.0,30.31,NE,44,7.0,13.0,32,99.99,,,-99.99,,2013-03-29 16:42:00,
2013-03-29 12:53:00,71.0,40.0,30.31,NE,35,7.0,11.0,33,99.99,,,-99.99,,2013-03-29 16:53:00,
2013-03-29 13:03:00,71.0,39.0,30.30,NE,48,9.0,13.0,31,99.99,,,-99.99,,2013-03-29 17:03:00,
2013-03-29 13:12:00,71.0,39.0,30.30,NE,48,9.0,13.0,31,99.99,,,-99.99,,2013-03-29 17:12:00,
2013-03-29 13:23:00,71.0,38.0,30.30,ENE,59,7.0,14.0,30,99.99,,,-99.99,,2013-03-29 17:23:00,
2013-03-29 13:33:00,72.0,40.0,30.29,NNE,25,7.0,11.0,31,99.99,,,-99.99,,2013-03-29 17:33:00,
2013-03-29 13:43:00,72.0,40.0,30.29,NNE,25,7.0,11.0,31,99.99,,,-99.99,,2013-03-29 17:43:00,
2013-03-29 13:53:00,73.0,37.0,30.28,NE,42,5.0,10.0,27,99.99,,,-99.99,,2013-03-29 17:53:00,
2013-03-29 14:02:00,73.0,37.0,30.27,ENE,63,6.0,11.0,27,99.99,,,-99.99,,2013-03-29 18:02:00,
2013-03-29 14:12:00,73.0,37.0,30.27,ENE,63,6.0,11.0,27,99.99,,,-99.99,,2013-03-29 18:12:00,
2013-03-29 14:23:00,73.0,36.0,30.27,NE,42,5.0,13.0,26,99.99,,,-99.99,,2013-03-29 18:23:00,
2013-03-29 14:32:00,73.0,35.0,30.26,NNE,30,8.0,13.0,25,99.99,,,-99.99,,2013-03-29 18:32:00,
2013-03-29 14:42:00,73.0,35.0,30.26,NNE,30,8.0,13.0,25,99.99,,,-99.99,,2013-03-29 18:42:00,
2013-03-29 14:53:00,74.0,38.0,30.26,ENE,58,7.0,13.0,27,99.99,,,-99.99,,2013-03-29 18:53:00,
2013-03-29 15:02:00,74.0,37.0,30.25,North,0,3.0,8.0,26,99.99,,,-99.99,,2013-03-29 19:02:00,
2013-03-29 15:12:00,75.0,36.0,30.25,NNE,31,4.0,9.0,24,99.99,,,-99.99,,2013-03-29 19:12:00,
2013-03-29 15:23:00,75.0,36.0,30.25,NNE,31,4.0,9.0,24,99.99,,,-99.99,,2013-03-29 19:23:00,
2013-03-29 15:32:00,74.0,34.0,30.24,NNE,30,6.0,13.0,23,99.99,,,-99.99,,2013-03-29 19:32:00,
2013-03-29 15:42:00,74.0,34.0,30.24,NNE,30,6.0,13.0,23,99.99,,,-99.99,,2013-03-29 19:42:00,
2013-03-29 15:53:00,75.0,34.0,30.24,North,0,3.0,8.0,22,99.99,,,-99.99,,2013-03-29 19:53:00,
2013-03-29 16:02:00,75.0,34.0,30.24,NNE,14,5.0,9.0,22,99.99,,,-99.99,,2013-03-29 20:02:00,
2013-03-29 16:12:00,75.0,34.0,30.24,NNE,14,5.0,9.0,22,99.99,,,-99.99,,2013-03-29 20:12:00,
2013-03-29 16:22:00,74.0,34.0,30.23,NNE,30,6.0,11.0,23,99.99,,,-99.99,,2013-03-29 20:22:00,
2013-03-29 16:33:00,75.0,35.0,30.23,NNW,329,6.0,9.0,23,99.99,,,-99.99,,2013-03-29 20:33:00,
2013-03-29 16:42:00,75.0,35.0,30.23,NNW,329,6.0,9.0,23,99.99,,,-99.99,,2013-03-29 20:42:00,
2013-03-29 16:52:00,74.0,33.0,30.22,North,359,6.0,9.0,22,99.99,,,-99.99,,2013-03-29 20:52:00,
2013-03-29 17:02:00,75.0,34.0,30.22,ENE,68,4.0,7.0,22,99.99,,,-99.99,,2013-03-29 21:02:00,
2013-03-29 17:12:00,75.0,34.0,30.22,ENE,68,4.0,7.0,22,99.99,,,-99.99,,2013-03-29 21:12:00,
2013-03-29 17:22:00,75.0,32.0,30.21,SW,217,4.0,6.0,21,99.99,,,-99.99,,2013-03-29 21:22:00,
2013-03-29 17:33:00,74.0,33.0,30.21,NNE,13,5.0,8.0,22,99.99,,,-99.99,,2013-03-29 21:33:00,
2013-03-29 17:42:00,74.0,33.0,30.21,NNE,13,5.0,8.0,22,99.99,,,-99.99,,2013-03-29 21:42:00,
2013-03-29 17:53:00,75.0,32.0,30.21,NNE,21,5.0,9.0,21,99.99,,,-99.99,,2013-03-29 21:53:00,
2013-03-29 18:03:00,75.0,34.0,30.20,NNW,342,1.0,6.0,22,99.99,,,-99.99,,2013-03-29 22:03:00,
2013-03-29 18:13:00,75.0,34.0,30.20,NNW,342,1.0,6.0,22,99.99,,,-99.99,,2013-03-29 22:13:00,
2013-03-29 18:23:00,76.0,32.0,30.21,North,10,1.0,5.0,20,99.99,,,-99.99,,2013-03-29 22:23:00,
2013-03-29 18:33:00,75.0,34.0,30.21,ENE,60,1.0,3.0,22,99.99,,,-99.99,,2013-03-29 22:33:00,
2013-03-29 18:42:00,75.0,34.0,30.21,ENE,60,1.0,3.0,22,99.99,,,-99.99,,2013-03-29 22:42:00,
2013-03-29 18:54:00,74.0,37.0,30.21,ENE,69,3.0,5.0,26,99.99,,,-99.99,,2013-03-29 22:54:00,
2013-03-29 19:03:00,74.0,36.0,30.21,North,1,2.0,4.0,25,99.99,,,-99.99,,2013-03-29 23:03:00,
2013-03-29 19:12:00,74.0,36.0,30.21,North,1,2.0,4.0,25,99.99,,,-99.99,,2013-03-29 23:12:00,
2013-03-29 19:22:00,73.0,37.0,30.21,North,0,0.0,0.0,27,99.99,,,-99.99,,2013-03-29 23:22:00,
2013-03-29 19:32:00,73.0,41.0,30.21,North,0,0.0,0.0,31,99.99,,,-99.99,,2013-03-29 23:32:00,
2013-03-29 19:42:00,73.0,41.0,30.21,North,0,0.0,0.0,31,99.99,,,-99.99,,2013-03-29 23:42:00,
2013-03-29 19:53:00,72.0,41.0,30.21,North,0,0.0,0.0,32,99.99,,,-99.99,,2013-03-29 23:53:00,
2013-03-29 20:03:00,70.0,43.0,30.21,North,0,0.0,0.0,38,99.99,,,-99.99,,2013-03-30 00:03:00,
2013-03-29 20:12:00,70.0,43.0,30.21,North,0,0.0,0.0,38,99.99,,,-99.99,,2013-03-30 00:12:00,
2013-03-29 20:22:00,68.0,48.0,30.22,North,0,0.0,0.0,48,99.99,,,-99.99,,2013-03-30 00:22:00,
2013-03-29 20:32:00,67.0,52.0,30.22,North,0,0.0,0.0,58,99.99,,,-99.99,,2013-03-30 00:32:00,
2013-03-29 20:42:00,67.0,52.0,30.22,North,0,0.0,0.0,58,99.99,,,-99.99,,2013-03-30 00:42:00,
2013-03-29 20:53:00,64.0,52.0,30.22,North,0,0.0,0.0,66,99.99,,,-99.99,,2013-03-30 00:53:00,
2013-03-29 21:03:00,62.0,46.0,30.23,ESE,122,3.0,5.0,56,99.99,,,-99.99,,2013-03-30 01:03:00,
2013-03-29 21:12:00,62.0,46.0,30.23,ESE,122,3.0,5.0,56,99.99,,,-99.99,,2013-03-30 01:12:00,
2013-03-29 21:22:00,61.0,47.0,30.23,SE,125,2.0,4.0,60,99.99,,,-99.99,,2013-03-30 01:22:00,
2013-03-29 21:33:00,60.0,46.0,30.23,East,84,1.0,3.0,60,99.99,,,-99.99,,2013-03-30 01:33:00,
2013-03-29 21:43:00,60.0,46.0,30.23,East,84,1.0,3.0,60,99.99,,,-99.99,,2013-03-30 01:43:00,
2013-03-29 21:53:00,60.0,46.0,30.24,ENE,72,0.0,2.0,60,99.99,,,-99.99,,2013-03-30 01:53:00,
2013-03-29 22:03:00,60.0,46.0,30.24,North,0,0.0,0.0,60,99.99,,,-99.99,,2013-03-30 02:03:00,
2013-03-29 22:12:00,60.0,46.0,30.24,North,0,0.0,0.0,60,99.99,,,-99.99,,2013-03-30 02:12:00,
2013-03-29 22:22:00,59.0,42.0,30.25,ESE,115,6.0,9.0,54,99.99,,,-99.99,,2013-03-30 02:22:00,
2013-03-29 22:32:00,60.0,45.0,30.25,SE,135,5.0,8.0,58,99.99,,,-99.99,,2013-03-30 02:32:00,
2013-03-29 22:42:00,60.0,45.0,30.25,SE,135,5.0,8.0,58,99.99,,,-99.99,,2013-03-30 02:42:00,
2013-03-29 22:53:00,60.0,47.0,30.25,SE,146,5.0,7.0,61,99.99,,,-99.99,,2013-03-30 02:53:00,
2013-03-29 23:03:00,59.0,48.0,30.26,West,271,7.0,10.0,66,99.99,,,-99.99,,2013-03-30 03:03:00,
2013-03-29 23:12:00,60.0,48.0,30.27,SSE,150,1.0,4.0,64,99.99,,,-99.99,,2013-03-30 03:12:00,
2013-03-29 23:22:00,60.0,48.0,30.27,SSE,150,1.0,4.0,64,99.99,,,-99.99,,2013-03-30 03:22:00,
2013-03-29 23:33:00,59.0,47.0,30.27,SW,233,2.0,3.0,65,99.99,,,-99.99,,2013-03-30 03:33:00,
2013-03-29 23:43:00,59.0,47.0,30.27,SW,233,2.0,3.0,65,99.99,,,-99.99,,2013-03-30 03:43:00,
2013-03-29 23:53:00,58.0,47.0,30.27,North,0,0.0,0.0,68,99.99,,,-99.99,,2013-03-30 03:53:00,